FENGYUN 1C DEB

Satellite information

Favourite Embed

Satellite Type and Status

DEBRISIN ORBIT

Key statistics

Satellite FENGYUN 1C DEB at a glance.

Uptime

9615

Days in orbit

Revolutions

≈ 14.7

Per day

Orbit

SSO

Sun Synchronous Orbit

Inclination

98.7

Latest

Satellite identification and parameters

Extended collection of information and parameters for FENGYUN 1C DEB.

Object identification

Identified? True

Debris? True

Object name: FENGYUN 1C DEB

International designator: 1999-025ASF

Object number (NORAD): 30721

Object ID (CCSDS): 30721

Country: PEOPLES REPUBLIC OF CHINA (PRC)

Current information (Y/N): Y

RCS size: SMALL

Orbital parameters

Period: 98.224 minutes

Inclination: 98.7069 deg

SMA: 7051.862 km

Apoapsis: 695.637 km

Periapsis: 651.817 km

RAAN: 9.9956 deg

Eccentricy: 0.003107

Argument of periapsis: 297.4452 deg

Mean anomaly: 91.873 deg

Mean motion: 14.6604419 rev/day

Mean motion (dot): 0.00042232 rev/day2

B* drag term: 0.0076094216 1/REarth

Two-line elements (TLE)

Creation date: Sept. 2, 2025, 10:20 a.m.

Reference frame: TEME

Reference center: EARTH

Epoch: Sept. 2, 2025, 6:56 a.m. UTC

TLE line 0: 0 FENGYUN 1C DEB

TLE line 1: 1 30721U 99025ASF 25245.28918147 .00042232 00000-0 76094-2 0 9997

TLE line 2: 2 30721 98.7069 9.9956 0031070 297.4452 91.8730 14.66044190963535

Live tracking on map

Real-time ground track for satellite FENGYUN 1C DEB.

In-orbit conjunctions

A list of the most updated potential collisions computed for object FENGYUN 1C DEB.

Target Orbit TCA Probability of collision Miss distance Type
SL-3 R/B LEO 2025-03-05 23:07:22 0.0001370643 538.0 (m) ROCKET BODY
CZ-4C R/B SSO 2024-06-21 20:35:38 0.0001697007 372.0 (m) ROCKET BODY

Associated space launch

Chinese polar orbiting meteorological satellite

FENGYUN 1C DEB was lifted into orbit during the mission ‘Long March 4B | Feng Yun 1C’, on board a Long March 4B space rocket.

The launch took place on May 10, 1999, 1:33 a.m. from Launch Complex 7.

For more information about the launch, click the button.

Launch to space Long March 4B | Feng Yun 1C
Long March 4B | Feng Yun 1C

Agency: N/A

Status: Launch Successful

Launch date: May 10, 1999, 1:33 a.m. UTC

Rocket: Long March 4B

Launch pad: Launch Complex 7

Location: Taiyuan Satellite Launch Center, People's Republic of China

...

Latest news about this satellite

There are no fresh news available about this satellite. Check back as we update our databases every day.


Newsletter sign-up

Weekly statistics, charts and insights to help you stay on top of the space industry.